This is the latest recevied weather packets stored in our database for station/object YC2UTR-2. If no packets are shown the sender has not sent any weather packets the latest 10 day(s).
| Time | Temp. | Humidity | Pressure | Rain* | Wind** | Luminosity | Snow |
|---|---|---|---|---|---|---|---|
| 1788067181 | 31.11° C | 49% | 1015.3 hPa | - | - | - | - |
| 1788066881 | 31.11° C | 50% | 1015.4 hPa | - | - | - | - |
| 1788066581 | 31.67° C | 50% | 1015.4 hPa | - | - | - | - |
| 1788066281 | 31.67° C | 49% | 1015.5 hPa | - | - | - | - |
| 1788065981 | 32.22° C | 48% | 1015.6 hPa | - | - | - | - |
| 1788065681 | 31.67° C | 49% | 1015.7 hPa | - | - | - | - |
| 1788065381 | 31.67° C | 50% | 1015.8 hPa | - | - | - | - |
| 1788065081 | 31.11° C | 51% | 1015.8 hPa | - | - | - | - |
| 1788064781 | 31.11° C | 52% | 1015.9 hPa | - | - | - | - |
| 1788064481 | 31.11° C | 51% | 1016 hPa | - | - | - | - |
| 1788064181 | 30.56° C | 51% | 1016.1 hPa | - | - | - | - |
| 1788063881 | 31.11° C | 50% | 1016.2 hPa | - | - | - | - |
| 1788063581 | 31.67° C | 50% | 1016.3 hPa | - | - | - | - |
| 1788063281 | 31.11° C | 50% | 1016.4 hPa | - | - | - | - |
| 1788062981 | 31.67° C | 51% | 1016.5 hPa | - | - | - | - |
| 1788062681 | 31.11° C | 52% | 1016.6 hPa | - | - | - | - |
| 1788062381 | 30.56° C | 53% | 1016.8 hPa | - | - | - | - |
| 1788062081 | 30.56° C | 54% | 1016.9 hPa | - | - | - | - |
| 1788061781 | 30° C | 55% | 1017 hPa | - | - | - | - |
| 1788061481 | 30.56° C | 54% | 1017.1 hPa | - | - | - | - |
| 1788061186 | 30° C | 55% | 1017.2 hPa | - | - | - | - |
| 1788060881 | 30.56° C | 54% | 1017.3 hPa | - | - | - | - |
| 1788060581 | 30° C | 55% | 1017.3 hPa | - | - | - | - |
| 1788060281 | 30° C | 56% | 1017.6 hPa | - | - | - | - |
| 1788059981 | 30.56° C | 56% | 1017.5 hPa | - | - | - | - |
* Rain since midnight (hover to see other rain measurements)
** Current wind speed in m/s (hover to see current wind gust speed)